Theta_e
281 272 269 271 274 276 274 273 271 274 280 281 281 280 282 286 286 287 289 290 291 292 294 294 296 294 294 296 299 307 315 322 328 329 326 326 324 325 325 323 322 319 316 312
276 269 273 275 277 272 272 270 271 275 278 277 277 279 284 286 287 288 288 289 290 292 294 294 292 292 291 292 294 299 308 318 325 327 327 327 326 325 325 322 319 316 314 311
271 271 275 276 274 270 270 270 271 271 274 277 276 274 278 284 287 289 290 291 291 288 284 286 286 287 288 288 289 291 295 311 321 325 326 326 322 315 314 315 314 313 313 311
270 273 273 272 271 271 267 274 272 272 270 267 274 266 275 280 283 287 289 290 285 283 284 284 285 285 286 287 288 289 292 295 315 322 322 322 319 315 314 312 312 312 312 310
269 270 271 269 271 273 269 273 271 272 270 269 269 269 274 280 280 280 283 284 280 281 281 281 282 284 284 285 285 287 289 293 303 319 321 321 318 318 314 313 308 308 308 309
271 274 272 271 274 274 274 272 271 272 270 265 270 271 271 272 275 276 278 278 278 278 278 279 280 281 282 283 283 284 286 289 291 314 319 319 317 313 306 306 305 304 305 306
270 270 272 275 270 273 272 267 261 258 258 263 273 270 273 277 278 277 275 275 276 276 275 275 276 276 278 279 280 282 283 285 288 292 316 317 314 312 305 304 304 303 303 301
262 261 269 273 271 266 269 268 262 258 260 263 270 269 272 279 279 278 277 276 276 275 274 274 274 275 275 277 278 279 280 282 284 287 293 305 308 304 300 301 302 302 303 302
259 263 271 274 273 271 268 263 270 265 266 263 268 274 279 278 277 276 276 276 275 274 273 273 273 274 274 275 276 277 278 280 282 284 288 295 299 297 297 297 298 299 299 299
267 259 270 272 272 272 269 271 261 263 257 254 265 267 268 272 273 275 275 275 275 275 274 273 272 273 274 274 274 275 276 277 280 282 285 288 291 294 295 296 296 296 297 297
262 263 265 269 264 266 266 264 265 265 263 260 259 263 274 273 274 273 275 276 275 275 274 273 273 273 273 273 273 273 274 275 277 280 282 284 286 288 292 293 294 295 296 296
268 262 260 263 269 272 267 263 264 257 257 262 262 261 276 275 274 274 274 275 276 276 275 275 274 273 272 272 272 272 273 274 276 278 280 282 284 285 286 287 290 293 294 295
264 259 253 259 261 266 261 268 269 267 266 261 259 262 276 276 274 274 273 274 276 276 275 275 275 274 273 272 272 271 272 272 274 276 278 280 282 283 284 285 287 289 292 293
275 256 257 256 260 260 256 260 267 261 257 261 264 267 271 272 272 273 273 274 275 275 275 275 275 274 274 274 273 272 271 272 273 274 275 277 279 280 283 285 286 287 289 291
268 256 257 262 266 266 264 263 264 262 264 261 267 267 270 270 272 273 274 274 274 274 274 274 274 274 274 273 274 273 272 272 273 273 273 275 277 278 280 282 284 286 287 287
264 258 256 258 267 267 263 265 264 266 266 266 268 267 272 269 273 272 273 273 273 274 274 274 274 274 273 273 273 273 272 272 273 272 272 274 275 276 277 279 281 283 285 286
265 258 253 253 264 263 254 259 261 265 262 264 263 267 270 270 272 272 272 273 273 274 274 274 273 273 272 271 272 272 271 271 271 271 271 272 273 275 275 277 278 279 281 285
259 258 255 254 254 248 262 267 265 267 267 267 268 270 270 271 271 272 272 272 274 274 273 273 273 273 272 271 271 272 271 270 269 269 270 270 272 273 274 275 275 277 279 281
270 261 253 252 244 259 264 264 263 260 262 267 269 270 270 269 266 268 273 273 272 273 274 273 273 272 271 270 271 271 270 269 268 267 268 269 270 272 272 272 273 275 276 279
271 269 259 244 248 249 260 264 268 266 259 263 269 269 269 268 261 264 269 273 273 273 273 273 272 272 271 270 270 270 268 267 265 266 267 268 269 270 270 271 272 273 275 276
259 257 260 254 250 256 265 268 268 255 260 266 271 271 269 268 270 268 272 272 273 273 273 272 270 270 270 270 269 268 268 265 265 265 266 267 267 268 269 270 271 271 273 275
259 255 252 248 248 254 267 268 264 267 264 271 271 271 271 272 273 272 271 272 273 271 271 271 269 269 269 268 268 267 266 266 265 264 264 264 265 267 268 268 269 270 271 272
260 264 259 260 261 266 268 270 272 268 269 269 269 272 272 272 272 273 272 271 270 269 271 270 268 267 261 262 266 265 266 264 263 262 261 262 263 265 265 266 266 267 269 269
265 266 263 263 266 268 269 270 269 271 271 274 274 273 272 271 273 272 271 270 269 269 268 268 266 265 262 263 265 264 264 262 259 259 260 261 261 262 263 264 266 265 266 267
267 265 265 266 269 271 272 271 274 274 274 273 273 273 273 272 273 271 270 270 269 268 267 265 265 265 264 263 261 259 262 259 259 259 258 259 260 260 261 262 263 265 267 268
271 269 266 266 271 269 271 272 271 271 272 272 272 272 273 272 271 270 268 268 266 265 265 263 263 262 262 262 262 261 259 259 257 257 259 259 259 259 259 259 260 264 267 269
Wind_Speed
7 13 9 10 7 6 8 13 19 24 16 24 20 29 40 24 23 26 24 21 24 21 12 11 14 9 10 11 11 14 15 17 13 13 13 12 12 12 11 11 16 15 14 15
6 13 11 10 6 14 13 19 18 19 20 22 21 32 34 28 21 19 20 21 18 21 20 13 16 16 16 13 11 10 14 15 15 14 14 13 13 12 12 10 12 14 15 16
9 4 14 14 9 21 15 13 13 22 26 15 24 31 29 27 23 23 22 20 19 10 10 13 15 15 16 17 17 15 17 15 17 20 12 11 7 3 6 8 9 11 15 15
5 9 12 13 11 18 18 11 20 24 18 13 11 20 28 22 25 18 19 17 7 12 13 13 15 16 17 17 17 16 16 17 16 19 16 20 15 13 12 11 11 12 16 16
7 6 9 11 13 19 13 20 21 25 24 19 4 13 11 13 17 24 22 16 17 16 18 18 17 16 15 16 17 18 18 16 15 17 18 16 17 13 10 9 12 12 12 14
4 6 2 2 10 15 16 15 22 19 5 5 15 11 6 11 13 19 20 20 20 20 19 17 17 17 16 16 17 18 20 18 18 11 17 18 18 14 9 11 11 11 10 10
6 3 4 3 12 10 20 15 6 8 6 6 9 12 8 12 15 18 18 20 18 18 18 18 21 20 20 21 21 19 21 20 21 18 9 12 14 15 14 14 12 13 10 8
5 8 4 9 9 6 10 8 3 8 8 17 18 4 6 10 10 13 14 14 18 19 18 20 20 18 19 20 20 20 21 20 20 19 17 5 4 4 4 8 7 9 10 10
5 6 4 5 7 3 6 8 10 6 9 6 4 6 5 17 16 16 17 18 18 20 20 20 20 18 18 18 19 19 21 20 19 19 16 11 4 5 6 7 5 5 5 6
2 7 5 5 2 4 5 6 4 4 6 8 7 8 7 20 23 19 19 17 16 16 20 19 18 19 18 17 17 18 18 18 18 18 16 13 13 7 1 6 7 7 6 7
3 4 6 4 1 2 3 4 4 3 3 5 8 5 9 13 14 17 16 15 16 16 16 18 17 17 17 17 18 18 19 20 20 18 16 16 15 14 9 6 3 5 6 7
4 4 6 6 7 6 5 4 4 3 7 6 10 11 6 11 13 11 14 14 13 13 13 12 16 16 17 18 19 18 18 18 19 17 15 16 15 15 13 11 10 5 3 4
3 3 6 11 8 5 1 4 6 5 8 10 8 9 16 21 13 11 11 12 12 13 13 13 12 14 16 17 18 18 18 18 17 16 16 17 17 17 16 14 12 11 4 4
6 3 9 10 10 3 4 4 12 5 4 9 13 20 7 10 13 14 14 14 12 10 12 13 13 14 15 16 17 17 17 17 17 16 16 17 17 16 15 14 14 13 12 5
6 5 6 13 19 16 21 19 15 13 15 12 11 15 11 6 9 8 12 12 11 11 13 13 14 13 13 15 15 16 17 17 17 16 17 18 16 16 15 16 15 13 13 11
1 5 2 9 17 16 19 20 14 17 18 18 15 15 6 5 5 6 9 10 12 12 12 13 13 14 14 15 14 14 15 16 17 16 17 17 17 18 17 16 16 14 13 12
4 3 2 8 6 9 9 12 10 7 7 8 12 10 3 7 7 6 7 9 9 9 11 10 10 9 11 11 13 11 12 13 14 16 17 18 17 17 17 16 16 16 15 12
5 5 2 6 5 3 9 4 6 13 10 11 10 8 8 9 7 7 7 7 11 8 6 8 6 7 8 8 10 9 11 12 13 15 16 16 16 15 15 15 16 16 14 14
15 5 2 3 4 10 12 4 7 9 13 12 16 9 8 5 4 7 8 8 8 8 6 3 4 4 2 6 9 9 10 11 13 15 15 14 15 14 14 16 16 14 13 13
13 9 5 4 4 8 9 4 2 3 10 6 10 8 7 2 2 7 7 7 8 7 5 7 3 4 4 6 8 8 9 11 12 14 14 13 13 13 12 12 13 13 12 11
5 2 16 7 5 12 13 10 2 6 12 4 9 8 6 7 10 6 6 7 6 6 6 5 5 5 4 6 6 7 6 8 10 10 11 12 11 12 12 11 10 11 10 10
10 8 6 4 3 14 8 7 10 11 3 5 6 9 11 11 13 9 9 7 7 8 6 5 3 3 4 5 5 7 6 4 4 7 9 9 11 10 10 11 10 10 10 9
5 11 8 13 13 6 7 5 10 4 7 5 6 8 9 12 10 12 8 7 7 6 5 4 3 2 2 3 1 7 5 6 9 9 7 8 9 9 10 10 9 7 7 7
7 5 5 1 10 21 13 11 6 7 11 13 13 13 7 11 13 11 7 5 5 5 4 3 2 2 3 1 4 5 4 4 6 10 10 8 7 7 7 6 6 6 6 6
7 7 5 13 23 17 21 16 20 17 12 11 10 11 11 9 12 8 5 5 4 4 3 2 1 3 3 2 2 1 4 6 8 7 7 8 7 8 7 7 6 7 6 8
13 16 14 17 21 9 16 6 5 7 10 11 10 8 8 8 8 5 4 3 3 3 2 2 3 5 6 4 6 7 3 5 5 8 8 6 5 6 8 7 7 10 14 15
Wind_Direction
20 62 21 329 314 333 314 306 296 300 309 300 275 273 281 283 278 281 281 286 291 287 272 261 273 257 248 245 230 218 209 208 195 202 203 203 197 193 195 193 193 186 182 180
51 48 353 332 1 2 345 320 313 298 343 319 306 283 284 283 283 289 285 282 282 293 294 322 356 3 359 333 320 273 227 211 202 204 204 207 204 206 202 193 187 183 182 183
70 17 346 7 350 349 339 308 309 301 310 272 268 268 279 280 261 259 259 265 278 325 0 358 2 358 354 353 343 330 314 234 210 206 203 203 191 141 172 190 184 187 184 186
56 330 353 348 11 346 325 313 315 305 310 301 51 293 295 289 286 281 281 277 3 9 6 7 4 2 356 348 338 335 326 310 232 207 200 199 200 196 199 192 190 189 188 187
303 303 351 9 351 332 295 307 292 285 275 295 294 259 296 298 305 355 351 12 21 9 5 360 358 355 353 351 345 339 337 328 290 211 210 204 202 203 186 189 185 188 189 190
293 289 31 282 326 310 311 305 281 270 243 228 269 239 54 26 353 7 15 13 6 0 355 355 353 351 352 354 353 347 348 345 344 269 212 206 202 191 172 173 177 184 187 190
329 268 313 299 320 298 347 357 344 5 360 288 328 339 49 26 21 16 6 1 0 357 354 353 356 354 352 355 354 352 351 351 348 345 263 208 205 198 187 179 181 179 181 185
5 342 17 337 348 304 346 10 329 319 326 294 303 246 54 39 31 25 14 0 354 357 358 356 355 352 350 352 355 353 352 352 353 352 346 325 174 165 164 174 181 188 189 185
16 273 323 304 333 31 327 7 298 272 278 257 288 342 328 14 19 19 8 359 357 353 356 356 351 352 353 354 357 354 354 354 356 357 353 353 0 140 154 162 158 170 156 160
241 294 251 315 11 26 120 293 0 355 320 301 309 312 1 7 0 2 4 354 348 354 353 355 354 352 352 354 356 359 1 359 356 360 4 4 6 1 107 146 161 167 158 153
144 140 278 19 70 307 340 3 346 263 259 294 318 276 37 19 0 355 349 346 346 354 354 351 355 355 351 355 2 3 5 2 1 2 4 11 10 11 20 9 331 174 159 158
210 191 278 262 282 206 192 183 166 115 293 278 268 271 119 38 23 355 341 346 349 351 345 346 355 354 357 2 5 6 6 6 4 358 4 15 14 15 20 14 358 346 268 171
239 288 330 333 357 19 121 265 271 283 254 250 257 279 328 352 349 344 341 346 345 347 343 348 355 360 357 3 4 6 6 6 5 3 6 14 17 17 16 12 5 358 299 214
215 155 177 216 237 166 275 237 277 193 224 269 265 292 348 334 331 331 334 336 348 358 346 351 2 1 359 358 1 2 5 6 5 8 13 16 13 11 9 11 15 12 6 329
142 230 200 248 263 267 268 265 256 239 251 250 283 297 289 299 310 305 316 329 342 348 354 3 3 359 2 359 359 1 3 1 3 9 14 15 11 13 11 9 12 14 19 13
345 268 98 280 266 258 269 266 245 247 261 257 265 276 206 271 271 275 303 320 335 343 355 3 360 359 2 360 357 0 2 360 358 7 12 6 10 13 14 10 8 10 12 16
199 188 74 266 341 316 302 239 212 203 206 204 249 251 278 296 283 285 281 303 316 335 339 348 353 352 358 352 350 1 359 3 6 6 6 5 3 7 9 9 11 10 4 7
182 136 159 266 4 335 245 262 179 211 233 236 249 249 253 251 262 258 227 265 299 312 316 326 334 338 350 350 352 355 5 9 10 15 9 1 359 1 1 8 8 5 5 6
192 148 284 229 198 299 286 256 189 172 263 228 231 230 249 261 348 282 220 216 248 277 293 278 296 310 337 356 353 1 4 1 5 10 5 358 353 354 0 4 360 358 358 5
187 196 166 80 173 239 237 265 157 138 289 241 185 205 236 131 300 257 217 213 228 240 269 300 306 306 1 5 355 358 2 5 1 1 351 349 347 347 1 357 356 350 352 352
136 220 220 209 252 277 245 222 132 88 245 208 183 208 214 208 226 228 182 220 218 214 227 249 309 325 9 4 352 355 5 6 351 343 342 339 334 344 354 350 354 350 348 349
172 176 195 93 170 272 190 102 184 214 256 205 199 218 240 241 252 239 229 222 213 213 220 226 234 286 338 348 356 349 350 355 333 331 333 323 338 343 347 346 346 351 349 352
255 200 184 185 212 238 211 231 224 171 206 218 217 245 235 267 252 244 233 215 212 212 208 195 222 226 290 307 340 328 328 345 338 337 335 332 332 335 338 339 340 346 351 350
253 163 225 137 245 247 255 260 248 243 242 261 271 276 258 254 254 245 225 224 211 202 201 169 172 259 281 263 320 292 343 337 337 329 329 332 325 329 326 330 330 329 339 342
197 138 216 259 264 275 264 251 266 274 270 266 263 252 251 240 250 225 207 212 200 187 135 115 319 287 285 273 265 259 332 330 324 318 315 316 323 324 319 316 314 314 313 308
227 240 237 253 252 247 270 229 235 247 258 259 253 264 255 228 231 181 190 172 149 157 118 345 313 300 300 317 313 308 298 303 290 301 307 309 302 306 310 308 299 299 302 308